Crestview, FL

4:50 PM CST on January 17, 2018 (GMT -0600)
Sikes

Weather History for KCEW - November, 2012

Change the Weather History Date:

Tuesday, November 20, 2012

  Actual Average Record
Temperature  
Mean Temperature 54 °F -  
Max Temperature 69 °F 71 °F 83 °F (1950)
Min Temperature 39 °F 47 °F 25 °F (2014)
Degree Days  
Heating Degree Days 11    
Growing Degree Days 4 (Base 50)    
Moisture  
Dew Point 49 °F    
Average Humidity 79    
Maximum Humidity 93    
Minimum Humidity 54    
Precipitation  
Precipitation 0.00 in - - ()
Sea Level Pressure  
Sea Level Pressure 30.15 in    
Wind  
Wind Speed 1 mph (NNW)    
Max Wind Speed 7 mph    
Max Gust Speed -    
Visibility 10 miles    
Events Rain    
Averages and records for this station are not official NWS values.
T = Trace of Precipitation, MM = Missing Value Source: NWS Daily Summary

Daily Weather History Graph

Daily Weather History Graph

Search for Another Location

Airport or City:

Trip Planner

Search our weather history database for the weather conditions in past years. The results will help you decide how hot, cold, wet, or windy it might be!

Date:

Astronomy

Nov. 20, 2012 Rise Set
Actual Time 6:17 AM CST 4:46 PM CST
Civil Twilight 5:51 AM CST 5:12 PM CST
Nautical Twilight 5:22 AM CST 5:41 PM CST
Astronomical Twilight 4:53 AM CST 6:10 PM CST
Moon 12:05 PM CST (11/20) No Moon Set
Length of Visible Light 11h 20m
Length of Day
10h 28m
First Quarter, 51% of the Moon is Illuminated
Nov 20
First Quarter
Nov 28
Full
Dec 6
Last Quarter
Dec 13
New
Dec 19
First Quarter

Hourly Weather History & Observations

Time (CST) Temp. Windchill Dew Point Humidity Pressure Visibility Wind Dir Wind Speed Gust Speed Precip Events Conditions
12:53 AM 41.0 °F - 39.0 °F 93% 30.17 in 10.0 mi Calm Calm - N/A   Clear
2:53 AM 41.0 °F - 39.0 °F 93% 30.17 in 10.0 mi Calm Calm - N/A   Partly Cloudy
3:53 AM 42.1 °F - 39.9 °F 92% 30.16 in 10.0 mi Calm Calm - N/A   Mostly Cloudy
4:53 AM 39.9 °F - 37.9 °F 93% 30.16 in 10.0 mi Calm Calm - N/A   Clear
5:53 AM 43.0 °F 41.3 °F 41.0 °F 93% 30.18 in 10.0 mi NNW 3.5 mph - N/A   Overcast
6:53 AM 43.0 °F - 41.0 °F 93% 30.20 in 10.0 mi Calm Calm - N/A   Clear
7:53 AM 55.0 °F - 48.9 °F 80% 30.21 in 10.0 mi Calm Calm - N/A   Clear
8:53 AM 61.0 °F - 51.1 °F 70% 30.19 in 10.0 mi Calm Calm - N/A   Clear
9:53 AM 66.0 °F - 53.1 °F 63% 30.19 in 10.0 mi Calm Calm - N/A   Clear
10:53 AM 68.0 °F - 53.1 °F 59% 30.17 in 10.0 mi Calm Calm - N/A   Partly Cloudy
11:53 AM 69.1 °F - 52.0 °F 54% 30.15 in 10.0 mi NNW 5.8 mph - N/A   Scattered Clouds
12:53 PM 68.0 °F - 52.0 °F 56% 30.12 in 10.0 mi Calm Calm - N/A   Partly Cloudy
1:53 PM 66.9 °F - 50.0 °F 54% 30.11 in 10.0 mi NNW 5.8 mph - N/A   Partly Cloudy
2:53 PM 66.9 °F - 51.1 °F 57% 30.11 in 10.0 mi NNW 6.9 mph - N/A   Clear
3:53 PM 64.0 °F - 54.0 °F 70% 30.11 in 10.0 mi NNW 3.5 mph - 0.00 in Rain Light Rain
4:53 PM 61.0 °F - 55.9 °F 83% 30.11 in 10.0 mi Calm Calm - 0.00 in Rain Light Rain
5:53 PM 57.9 °F - 54.0 °F 87% 30.12 in 10.0 mi NW 3.5 mph - 0.00 in   Clear
6:53 PM 57.9 °F - 54.0 °F 87% 30.14 in 10.0 mi Calm Calm - N/A   Mostly Cloudy
7:53 PM 57.9 °F - 53.1 °F 84% 30.14 in 10.0 mi NNW 4.6 mph - N/A   Mostly Cloudy
8:53 PM 55.0 °F - 52.0 °F 89% 30.14 in 10.0 mi Calm Calm - N/A   Mostly Cloudy
9:53 PM 57.0 °F - 53.1 °F 87% 30.16 in 10.0 mi NNW 4.6 mph - N/A   Overcast
10:53 PM 55.0 °F - 51.1 °F 86% 30.15 in 10.0 mi NNW 4.6 mph - N/A   Mostly Cloudy
11:53 PM 55.0 °F - 50.0 °F 83% 30.14 in 10.0 mi NNW 4.6 mph - N/A   Scattered Clouds